Imperial, NE

4:05 AM MDT on October 20, 2017 (GMT -0600)
Imperial Municipal

Weather History for KIML - April, 2013

Change the Weather History Date:

Thursday, April 11, 2013

  Actual Average Record
Temperature  
Mean Temperature 31 °F 47 °F  
Max Temperature 44 °F 61 °F 86 °F (1982)
Min Temperature 17 °F 33 °F 12 °F (1997)
Degree Days  
Heating Degree Days 34 18  
Month to date heating degree days 240 215  
Cooling Degree Days 0 0  
Month to date cooling degree days 0 0  
Year to date cooling degree days 0 0  
Moisture  
Dew Point 21 °F    
Average Humidity 69    
Maximum Humidity 92    
Minimum Humidity 45    
Precipitation  
Precipitation 0.00 in 0.07 in 1.26 in (1901)
Sea Level Pressure  
Sea Level Pressure 29.88 in    
Wind  
Wind Speed 13 mph (NW)    
Max Wind Speed 26 mph    
Max Gust Speed 33 mph    
Visibility 10 miles    
Events      
T = Trace of Precipitation, MM = Missing Value Source: NWS Daily Summary

Daily Weather History Graph

Daily Weather History Graph

Search for Another Location

Airport or City:

Trip Planner

Search our weather history database for the weather conditions in past years. The results will help you decide how hot, cold, wet, or windy it might be!

Date:

Astronomy

Apr. 11, 2013 Rise Set
Actual Time 6:13 AM MDT 7:21 PM MDT
Civil Twilight 5:45 AM MDT 7:49 PM MDT
Nautical Twilight 5:12 AM MDT 8:23 PM MDT
Astronomical Twilight 4:37 AM MDT 8:58 PM MDT
Moon 6:46 AM MDT (4/11) 8:58 PM MDT (4/11)
Length of Visible Light 14h 04m
Length of Day
13h 08m
New Moon, 2% of the Moon is Illuminated
Apr 11
New Moon
Apr 18
First Quarter
Apr 25
Full
May 2
Last Quarter
May 9
New

Hourly Weather History & Observations

Time (MDT) Temp. Windchill Dew Point Humidity Pressure Visibility Wind Dir Wind Speed Gust Speed Precip Events Conditions
12:53 AM 21.9 °F 11.0 °F 19.0 °F 89% 30.02 in 10.0 mi WNW 10.4 mph - 0.00 in   Overcast
1:05 AM 23.0 °F 13.1 °F 17.6 °F 80% 29.90 in 10.0 mi WNW 9.2 mph - N/A   Overcast
1:53 AM 23.0 °F 12.4 °F 18.0 °F 81% 29.98 in 10.0 mi WNW 10.4 mph - N/A   Overcast
2:24 AM 21.2 °F 10.9 °F 15.8 °F 80% 29.85 in 10.0 mi NW 9.2 mph - N/A   Scattered Clouds
2:48 AM 21.2 °F 11.7 °F 17.6 °F 86% 29.84 in 10.0 mi NW 8.1 mph - N/A   Mostly Cloudy
2:53 AM 21.0 °F 10.6 °F 16.0 °F 81% 29.94 in 10.0 mi NW 9.2 mph - N/A   Scattered Clouds
3:53 AM 19.9 °F 10.1 °F 17.1 °F 89% 29.91 in 10.0 mi NW 8.1 mph - N/A   Clear
4:53 AM 19.0 °F 9.0 °F 15.1 °F 85% 29.88 in 10.0 mi NW 8.1 mph - N/A   Clear
5:53 AM 18.0 °F 6.1 °F 14.0 °F 84% 29.89 in 10.0 mi West 10.4 mph - N/A   Clear
6:53 AM 18.0 °F 6.9 °F 12.9 °F 81% 29.88 in 10.0 mi WNW 9.2 mph - N/A   Clear
7:53 AM 21.9 °F 10.4 °F 16.0 °F 78% 29.89 in 10.0 mi NNW 11.5 mph - N/A   Clear
8:53 AM 26.1 °F 14.5 °F 18.0 °F 71% 29.90 in 10.0 mi North 13.8 mph - N/A   Scattered Clouds
9:53 AM 28.9 °F 17.3 °F 19.9 °F 69% 29.89 in 10.0 mi NW 16.1 mph - N/A   Clear
10:53 AM 30.2 °F 18.1 °F 21.2 °F 69% 29.79 in 10.0 mi NW 18.4 mph 24.2 mph N/A   Clear
11:53 AM 36.0 °F 25.6 °F 23.0 °F 59% 29.85 in 10.0 mi NW 18.4 mph - N/A   Clear
12:53 PM 37.0 °F 26.4 °F 21.0 °F 52% 29.84 in 10.0 mi NW 20.7 mph 28.8 mph N/A   Scattered Clouds
1:53 PM 39.0 °F 28.8 °F 23.0 °F 53% 29.82 in 10.0 mi NW 21.9 mph 29.9 mph N/A   Mostly Cloudy
2:53 PM 41.0 °F 31.6 °F 23.0 °F 49% 29.81 in 10.0 mi NW 20.7 mph 29.9 mph N/A   Clear
3:53 PM 42.1 °F 32.8 °F 23.0 °F 47% 29.81 in 10.0 mi NW 21.9 mph 29.9 mph N/A   Partly Cloudy
4:53 PM 42.1 °F 33.3 °F 24.1 °F 49% 29.81 in 10.0 mi NNW 19.6 mph 31.1 mph N/A   Overcast
5:53 PM 39.9 °F 31.1 °F 27.0 °F 60% 29.84 in 10.0 mi North 17.3 mph - N/A   Overcast
6:53 PM 37.9 °F 28.5 °F 26.1 °F 62% 29.85 in 10.0 mi North 17.3 mph - N/A   Mostly Cloudy
7:05 PM 35.6 °F 26.2 °F 26.6 °F 70% 29.77 in 10.0 mi North 15.0 mph - N/A   Mostly Cloudy
7:53 PM 34.0 °F 26.0 °F 25.0 °F 70% 29.88 in 10.0 mi North 10.4 mph - N/A   Overcast
8:53 PM 33.1 °F 26.1 °F 25.0 °F 72% 29.91 in 10.0 mi NNW 8.1 mph - N/A   Mostly Cloudy
9:53 PM 28.9 °F 22.8 °F 24.1 °F 82% 29.94 in 10.0 mi North 5.8 mph - N/A   Partly Cloudy
10:17 PM 30.2 °F 25.4 °F 24.8 °F 80% 29.87 in 10.0 mi North 4.6 mph - N/A   Mostly Cloudy
10:53 PM 32.0 °F 24.8 °F 25.0 °F 75% 29.96 in 10.0 mi NNW 8.1 mph - N/A   Overcast
11:53 PM 32.0 °F 24.2 °F 25.0 °F 75% 29.94 in 10.0 mi NNW 9.2 mph - N/A   Overcast